LiveATC.Net - Listen to live air traffic control over the Internet!


ICAO: ESMS  IATA: MMX   Airport: Malmo Airport
City: Svedala
Country: Sweden   Continent: Europe
ESMS METAR Weather: ESMS 010150Z 26014KT 9999 BKN009 OVC017 04/03 Q1016 R17/09//95
ESMS Flight Activity (FlightAware)

ESMS Radar
Feed Status: UP   Listeners: 0
Listen in your browser - HTML5 player (in browser, HTML5)
Click here to listen with your own player (launches your MP3 player)
Archive Access: ESMS Radar
FacilityFrequency
Sweden Control (Sector L, Malmo)134.980

ESMS Tower
Feed Status: UP   Listeners: 0
Listen in your browser - HTML5 player (in browser, HTML5)
Click here to listen with your own player (launches your MP3 player)
Archive Access: ESMS Tower
FacilityFrequency
Malmo Tower118.800

NOTICE

Unauthorized use prohibited. See LiveATC.net Terms of Service


Airport/ARTCC Code
Frequency Search
(e.g., 124.400, 128.75)
Site-wide search
 


Browse Feeds
Top 50 Feeds
Coverage Map
Bad Weather Areas

LiveATC FAQ
Offer LiveATC feed
Contact LiveATC.net
Press Inquiries

LiveATC on iPhone
LiveATC on Android

Windows Phone
Windows 8/10

LiveATC Mobile
(Mobile browser)

ATC Audio Archives
Interesting Recordings

LiveATC Forums


Home Page
About LiveATC.net
Make a Donation
Terms of Use
Privacy Policy

Canadian Air Freqs

AIRMETs/SIGMETs

FAA Airport Status
Nat'l Airspace Status
Arrival Demand Charts


Server Software By:
Icecast.org
Liquidsoap